Tracking 20941 objects as of 2-Jul-2020
HD Live streaming from Space Station
objects crossing your sky now

DELTA 1 DEB

Track DELTA 1 DEB now!
10-day predictions


NORAD ID: 7933
Int'l Code: 1972-058CB
Perigee: 619.4 km
Apogee: 1,062.3 km
Inclination: 98.9 °
Period: 101.6 minutes
Semi major axis: 7211 km
RCS: 0.0774 m2 (small)
Launch date: July 23, 1972
Source: United States (US)
Launch site: AIR FORCE WESTERN TEST RANGE (AFWTR)

Note: This is SATELLITE DEBRIS
aabbcc
Your satellite tracking list
Your tracking list is empty




NASA's NSSDC Master Catalog

Two Line Element Set (TLE):
1  7933U 72058CB  20184.45996973 +.00000112 +00000-0 +52339-4 0  9991
2  7933 098.8664 149.7350 0307079 274.4940 082.1220 14.17539230287209
Source of the keplerian elements: AFSPC